TimeAKST,TemperatureF,Dew PointF,Humidity,Sea Level PressureIn,VisibilityMPH,Wind Direction,Wind SpeedMPH,Gust SpeedMPH,PrecipitationIn,Events,Conditions,WindDirDegrees,DateUTC
12:53 AM,19.9,17.1,89,29.75,10.0,ESE,8.1,-,N/A,,Mostly Cloudy,110,2013-03-07 09:53:00
1:53 AM,19.0,16.0,88,29.75,10.0,ENE,10.4,-,N/A,,Overcast,60,2013-03-07 10:53:00
2:53 AM,17.1,15.1,92,29.74,10.0,East,11.5,-,N/A,,Partly Cloudy,80,2013-03-07 11:53:00
3:53 AM,14.0,10.9,88,29.72,10.0,East,11.5,-,N/A,,Clear,80,2013-03-07 12:53:00
4:53 AM,15.1,10.9,84,29.70,10.0,ESE,15.0,-,N/A,,Clear,110,2013-03-07 13:53:00
5:53 AM,12.9,10.0,88,29.69,10.0,ENE,16.1,-,N/A,,Clear,70,2013-03-07 14:53:00
6:53 AM,14.0,10.0,84,29.66,10.0,East,8.1,-,N/A,,Clear,80,2013-03-07 15:53:00
7:53 AM,19.0,14.0,81,29.63,10.0,ENE,19.6,-,N/A,,Clear,70,2013-03-07 16:53:00
8:53 AM,19.0,14.0,81,29.60,10.0,ENE,18.4,-,N/A,,Mostly Cloudy,70,2013-03-07 17:53:00
9:53 AM,19.9,15.1,81,29.57,10.0,ENE,16.1,-,N/A,,Overcast,60,2013-03-07 18:53:00
10:53 AM,23.0,17.1,78,29.55,10.0,ENE,18.4,-,N/A,,Overcast,60,2013-03-07 19:53:00
11:53 AM,24.1,19.0,81,29.50,10.0,NE,21.9,-,N/A,,Overcast,50,2013-03-07 20:53:00
12:53 PM,26.1,19.9,78,29.47,10.0,NE,17.3,-,N/A,,Overcast,40,2013-03-07 21:53:00
1:53 PM,27.0,19.9,75,29.43,10.0,North,8.1,-,N/A,,Overcast,10,2013-03-07 22:53:00
2:53 PM,28.9,21.0,72,29.39,10.0,NE,23.0,-,N/A,,Overcast,50,2013-03-07 23:53:00
3:21 PM,28.4,21.2,74,29.37,1.8,East,26.5,-,0.00,,Overcast,80,2013-03-08 00:21:00
3:40 PM,28.4,21.2,74,29.36,3.0,East,21.9,-,0.00,,Overcast,80,2013-03-08 00:40:00
3:53 PM,28.0,21.9,78,29.36,5.0,ENE,23.0,-,0.00,,Haze,70,2013-03-08 00:53:00
4:53 PM,28.9,21.0,72,29.34,10.0,ENE,24.2,-,N/A,,Overcast,60,2013-03-08 01:53:00
5:53 PM,28.0,21.0,75,29.31,10.0,ENE,19.6,-,N/A,,Overcast,60,2013-03-08 02:53:00
6:53 PM,30.0,21.0,69,29.28,10.0,ENE,20.7,-,N/A,,Overcast,70,2013-03-08 03:53:00
7:53 PM,28.9,21.9,75,29.29,10.0,East,13.8,-,N/A,,Overcast,100,2013-03-08 04:53:00
8:53 PM,28.9,24.1,82,29.27,10.0,East,12.7,-,N/A,,Overcast,90,2013-03-08 05:53:00
9:04 PM,28.4,24.8,86,29.27,10.0,East,13.8,-,0.00,,Overcast,90,2013-03-08 06:04:00
9:31 PM,28.4,24.8,86,29.26,9.0,East,19.6,-,0.00,,Overcast,100,2013-03-08 06:31:00
9:50 PM,28.4,24.8,86,29.26,1.8,ESE,20.7,-,0.00,Snow,Light Snow,110,2013-03-08 06:50:00
9:51 PM,28.9,25.0,85,29.26,1.8,ESE,20.7,-,0.00,Snow,Light Snow,110,2013-03-08 06:51:00
10:53 PM,28.0,25.0,88,29.26,1.0,East,21.9,32.2,0.00,Snow,Light Snow,90,2013-03-08 07:53:00
11:10 PM,28.4,24.8,86,29.26,2.0,East,17.3,31.1,0.00,Snow,Light Snow,80,2013-03-08 08:10:00
11:42 PM,26.6,24.8,93,29.26,3.0,East,20.7,-,0.00,Snow,Light Snow,100,2013-03-08 08:42:00
11:48 PM,26.6,24.8,93,29.26,2.5,ESE,23.0,28.8,0.00,Snow,Light Snow,110,2013-03-08 08:48:00
11:53 PM,27.0,25.0,92,29.26,2.5,ESE,23.0,-,0.00,Snow,Light Snow,110,2013-03-08 08:53:00